Satellite: OKEAN-0
Catalog number: 25860
Epoch time:      05236.76298831
Element set:    0521
Inclination:      097.7547 deg
RA of node:       259.6341 deg
Eccentricity:    0.0001216
Arg of perigee:   079.7968 deg
Mean anomaly:     280.3346 deg
Mean motion:   14.73279295 rev/day
Decay rate:       -9.0e-08 rev/day^2
Epoch rev:           32810
Checksum:              325

Satellite: NOAA-16
Catalog number: 26536
Epoch time:      05237.43717345
Element set:     484
Inclination:      099.0189 deg
RA of node:       196.3026 deg
Eccentricity:    0.0009810
Arg of perigee:   231.1265 deg
Mean anomaly:     128.9057 deg
Mean motion:   14.12267929 rev/day
Decay rate:       4.03e-06 rev/day^2
Epoch rev:           25383
Checksum:              310

Satellite: NOAA-17
Catalog number: 27453
Epoch time:      05237.30389556
Element set:     504
Inclination:      098.6559 deg
RA of node:       309.7590 deg
Eccentricity:    0.0011466
Arg of perigee:   210.9525 deg
Mean anomaly:     149.1001 deg
Mean motion:   14.23695957 rev/day
Decay rate:       2.86e-06 rev/day^2
Epoch rev:           16467
Checksum:              328

Satellite: NOAA-18
Catalog number: 28654
Epoch time:      05237.49087421
Element set:     119
Inclination:      098.7473 deg
RA of node:       182.6878 deg
Eccentricity:    0.0014278
Arg of perigee:   343.1142 deg
Mean anomaly:     016.9559 deg
Mean motion:   14.10873783 rev/day
Decay rate:       1.59e-06 rev/day^2
Epoch rev:            1368
Checksum:              335

/EX
SB KEPS @ AMSAT  $ORB05237.M
Orbital Elements  05237.MISC

HR AMSAT ORBITAL ELEMENTS FOR MANNED AND MISCELLANEOUS SATELLITES
FROM WA5QGD FORT WORTH,TX August 25, 2005
Send SUBSCRIBE KEPS/UNSUBSCRIBE KEPS to majordomo@amsat.org only
BID: ORB05237.M
TO ALL RADIO AMATEURS BT

Satellite: HUBBLE
Catalog number: 20580
Epoch time:      05237.86465262
Element set:     412
Inclination:      028.4679 deg
RA of node:       174.7584 deg
Eccentricity:    0.0003798
Arg of perigee:   286.8487 deg
Mean anomaly:     073.1698 deg
Mean motion:   14.99806225 rev/day
Decay rate:       5.32e-06 rev/day^2
Epoch rev:           64071
Checksum:              337

Satellite: UARS
Catalog number: 21701
Epoch time:      05237.52762242
Element set:     515
Inclination:      056.9788 deg
RA of node:       268.9543 deg
Eccentricity:    0.0006957
Arg of perigee:   096.1309 deg
Mean anomaly:     264.0549 deg
Mean motion:   15.03881182 rev/day
Decay rate:       4.64e-06 rev/day^2
Epoch rev:           76392
Checksum:              321

Satellite: PO-34
Catalog number: 25520
Epoch time:      05236.62623902
Element set:    0264
Inclination:      028.4582 deg
RA of node:       214.6960 deg
Eccentricity:    0.0005007
Arg of perigee:   248.6208 deg
Mean anomaly:     111.3860 deg
Mean motion:   15.16390632 rev/day
Decay rate:       5.80e-06 rev/day^2
Epoch rev:           37698
Checksum:              290

Satellite: ISS
Catalog number: 25544
Epoch time:      05237.83690972
Element set:     220
Inclination:      051.6454 deg
RA of node:       264.3355 deg
Eccentricity:    0.0001031
Arg of perigee:   019.6549 deg
Mean anomaly:     338.0345 deg
Mean motion:   15.72042158 rev/day
Decay rate:     2.0537e-04 rev/day^2
Epoch rev:           38663
Checksum:              288

Satellite: OO-38
Catalog number: 26063
Epoch time:      05236.70105168
Element set:    0424
Inclination:      100.2056 deg
RA of node:       109.2502 deg
Eccentricity:    0.0036869
Arg of perigee:   221.8200 deg
Mean anomaly:     138.0160 deg
Mean motion:   14.35729958 rev/day
Decay rate:       -3.4e-07 rev/day^2
Epoch rev:           29213
Checksum:              270

Satellite: NO-45
Catalog number: 26932
Epoch time:      05236.85421263
Element set:     108
Inclination:      067.0576 deg
RA of node:       050.6015 deg
Eccentricity:    0.0004579
Arg of perigee:   246.2781 deg
Mean anomaly:     113.7850 deg
Mean motion:   14.29495706 rev/day
Decay rate:        3.5e-07 rev/day^2
Epoch rev:           20361
Checksum:              293

/EX



----
Via the keps mailing list at AMSAT.ORG courtesy of AMSAT-NA.
To unsubscribe, send "unsubscribe keps" to Majordomo@amsat.org

--- ViaMAIL!/WC v1.60d
 * Origin: Chowdanet (401-724-4410) telnet://chowdanet.com  (1:323/120)